Flag for Germany Weather past 2 weeks in Marl, North Rhine-Westphalia, Germany

41 °F

Partly sunny.

Feels Like: 35 °F
Forecast: 43 / 52 °F
Wind: 9 mph from West

Location: Dortmund / Wickede

Current Time: Nov 28, 2015 at 9:26:53 AM

Latest Report: Nov 28, 2015 at 8:50 AM

Visibility: N/A

Pressure: 29.80 "Hg

Humidity: 81%

Dew point: 36 °F

Location of MarlLocation

Historic Weather in Marl — Graph


Marl temperature yesterday

Maximum temperature yesterday: 43 °F (at 1:50 PM)
Minimum temperature yesterday: 34 °F (at 5:50 AM)
Average temperature yesterday: 38 °F

Past Weeks' High & Low Weather Summary

High59 °F (Nov 17, 9:20 PM)94% (Nov 15, 6:50 PM)30.27 "Hg (Nov 15, 6:50 PM)
Low32 °F (Nov 22, 6:20 AM)55% (Nov 13, 1:20 PM)29.39 "Hg (Nov 21, 5:20 AM)
Average45 °F77%29.87 "Hg
* Reported Nov 13 7:20 AM — Nov 28 7:20 AM, Marl, Weather by CustomWeather, © 2015

Note: Actual official high and low records may vary slightly from our data, if they occured in-between our weather recording intervals... More about our weather records


Marl weather history for previous 24 hours

Time TempWeatherWind HumidityBarometerVisibility
7:20 AM
Sat, Nov 28
39 °FSprinkles. Passing clouds.14 mph87%29.74 "HgN/A
6:50 AM39 °FSprinkles. Passing clouds.18 mph87%29.71 "Hg6 mi
6:20 AM37 °FSprinkles. Passing clouds.21 mph87%29.68 "Hg6 mi
5:50 AM37 °FSprinkles. Passing clouds.22 mph87%29.68 "Hg6 mi
5:20 AM37 °FSprinkles. Passing clouds.20 mph81%29.68 "Hg6 mi
10:50 PM
Fri, Nov 27
37 °FPassing clouds.13 mph70%29.80 "HgN/A
10:20 PM36 °FClear.13 mph75%29.83 "Hg10 mi
9:50 PM36 °FClear.15 mph75%29.83 "Hg10 mi
9:20 PM36 °FClear.15 mph81%29.86 "Hg10 mi
8:50 PM37 °FPassing clouds.15 mph75%29.86 "HgN/A
8:20 PM37 °FPassing clouds.17 mph75%29.86 "HgN/A
7:50 PM37 °FPassing clouds.15 mph75%29.89 "HgN/A
7:20 PM37 °FPassing clouds.14 mph75%29.89 "HgN/A
6:50 PM37 °FPassing clouds.14 mph75%29.89 "HgN/A
6:20 PM37 °FPassing clouds.13 mph75%29.89 "HgN/A
5:50 PM37 °FPassing clouds.15 mph75%29.89 "HgN/A
5:20 PM37 °FClear.12 mph75%29.92 "Hg10 mi
4:50 PM37 °FClear.13 mph75%29.92 "Hg10 mi
4:20 PM39 °FSunny.10 mph75%29.92 "Hg10 mi
3:50 PM39 °FPassing clouds.10 mph75%29.95 "HgN/A
3:20 PM41 °FSunny.12 mph70%29.95 "Hg10 mi
2:50 PM41 °FSunny.12 mph70%29.95 "Hg10 mi
2:20 PM43 °FPassing clouds.12 mph66%29.98 "HgN/A
1:50 PM43 °FSunny.12 mph66%29.98 "Hg10 mi
1:20 PM41 °FSunny.14 mph70%30.01 "Hg10 mi
12:50 PM41 °FSunny.10 mph70%30.01 "Hg10 mi
12:20 PM41 °FSunny.12 mph70%30.04 "Hg10 mi
11:50 AM41 °FSunny.13 mph70%30.04 "Hg10 mi
11:20 AM39 °FSunny.13 mph75%30.04 "Hg10 mi
10:50 AM39 °FSunny.12 mph75%30.07 "Hg10 mi
10:20 AM37 °FSunny.12 mph81%30.07 "Hg10 mi
9:50 AM37 °FSunny.13 mph81%30.07 "Hg10 mi
9:20 AM36 °FSunny.12 mph87%30.07 "Hg10 mi
Weather by CustomWeather, © 2015

See weather overviewHow to use our weather pages